Regional Weather Roundup
Issued by NWS Raleigh/Durham, NC

Home | Current Version | Previous Version | Text Only | Print | Product List | Glossary On
Versions: 1 2 3 4 5 6 7 8 9 10 11 12 13 14 15 16 17 18 19 20 21 22 23 24 25 26 27 28 29 30 31 32 33 34 35 36 37 38 39 40 41 42 43 44 45 46 47 48 49 50
000
ASUS42 KRAH 301810
RWRRAH
NORTH CAROLINA WEATHER ROUNDUP
NATIONAL WEATHER SERVICE RALEIGH NC
200 PM EDT THU JUL 30 2015

NOTE: "FAIR" INDICATES FEW OR NO CLOUDS BELOW 12,000 FEET WITH NO
SIGNIFICANT WEATHER AND/OR OBSTRUCTIONS TO VISIBILITY.

NCZ001-053-055-056-065-067-301900-
WESTERN NORTH CAROLINA

CITY           SKY/WX    TMP DP  RH WIND       PRES   REMARKS
ASHEVILLE      MOSUNNY   89  66  46 VRB7      30.08F
JEFFERSON      PTSUNNY   81  63  53 N3        30.13F
MORGANTON      MOSUNNY   91  69  48 NW3       30.05S HX  95
HICKORY        MOSUNNY   90  69  50 VRB6      29.99F
RUTHERFORDTON  SUNNY     93  70  47 NE6       29.99F HX  98
MOUNT AIRY     MOSUNNY   90  76  62 W3        30.01F HX 101
BOONE          MOSUNNY   81  64  56 NW6       30.14F
$$

NCZ021-022-025-041-071-084-088-301900-
CENTRAL NORTH CAROLINA

CITY           SKY/WX    TMP DP  RH WIND       PRES   REMARKS
CHARLOTTE      MOSUNNY   96  69  41 N8        29.97F HX 102
GREENSBORO     PTSUNNY   90  70  51 NW9       29.96F HX  95
WINSTON-SALEM  LGT RAIN  81  71  71 S3        29.98F
RALEIGH-DURHAM MOSUNNY   91  71  51 S5        29.95F HX  97
FORT BRAGG     PTSUNNY   90  71  54 SW5       29.92F HX  96
FAYETTEVILLE   SUNNY     94  71  47 VRB3      29.93F HX 101
BURLINGTON     MOSUNNY   91  73  55 CALM      29.95F HX  99
LAURINBURG     MOSUNNY   96  67  38 CALM      29.93F HX 100
$$

NCZ011-015-027-028-043-044-047-080-103-301900-
NORTHEASTERN NORTH CAROLINA

CITY           SKY/WX    TMP DP  RH WIND       PRES   REMARKS
ROCKY MT-WILSO MOSUNNY   94  70  45 CALM      29.93F HX 100
GREENVILLE     SUNNY     91  72  52 W3        29.95F HX  98
WASHINGTON     PTSUNNY   90  73  57 E5        29.93F HX  97
ELIZABETH CITY MOSUNNY   87  74  64 E12       29.94F HX  95
MANTEO         PTSUNNY   87  77  72 S17       29.95F HX  98
CAPE HATTERAS  PTSUNNY   85  77  77 S10       29.96F HX  95
$$

NCZ078-087-090-091-093-098-101-301900-
SOUTHEASTERN NORTH CAROLINA

CITY           SKY/WX    TMP DP  RH WIND       PRES   REMARKS
LUMBERTON      MOSUNNY   95  71  45 E5        29.92F HX 102
GOLDSBORO      NOT AVBL
KINSTON        SUNNY     90  70  51 NE5       29.94F HX  95
KENANSVILLE    MOSUNNY   90  64  42 CALM      29.94F
NEW BERN       CLOUDY    86  76  71 CALM      29.94F HX  96
CHERRY POINT   MOSUNNY   89  75  63 S14G20    29.94F HX  99
BEAUFORT       SUNNY     86  78  77 S15       29.94F HX  98
JACKSONVILLE   MOSUNNY   87  74  64 E6        29.93F HX  95
WILMINGTON     PTSUNNY   91  74  57 VRB7      29.92F HX 100
$$



USA.gov is the U.S. government's official web portal to all federal, state and local government web resources and services.